Regional Weather Roundup
Issued by NWS Jackson, KY

Home | Current Version | Previous Version | Text Only | Print | Product List | Glossary On
Versions: 1 2 3 4 5 6 7 8 9 10 11 12 13 14 15 16 17 18 19 20 21 22 23 24 25 26 27 28 29 30 31 32 33 34 35 36 37 38 39 40 41 42 43 44 45 46 47 48 49 50
000
ASUS43 KJKL 221019
RWRJKL

EAST KENTUCKY HOURLY WEATHER ROUNDUP
NATIONAL WEATHER SERVICE JACKSON KY
500 AM EST SAT NOV 22 2014

NOTE: "FAIR" INDICATES FEW OR NO CLOUDS BELOW 12,000 FEET WITH
NO SIGNIFICANT WEATHER AND/OR OBSTRUCTIONS TO VISIBILITY.

* THESE REPORTS ARE NOT UNDER NWS QUALITY CONTROL AND MAY NOT
  REPORT WEATHER SUCH AS PRECIPITATION AND FOG.

KYZ079-080-083-085-087-088-110-112-115-119-120-221100
...EASTERN KENTUCKY...

CITY           SKY/WX    TMP DP  RH WIND       PRES   REMARKS
JACKSON        PTCLDY    33  11  39 S6        30.36S WCI  28
LONDON         PTCLDY    29  19  66 CALM      30.38R
SOMERSET*      PTCLDY    32  21  64 S3        30.38F
MONTICELLO*    MOCLDY    39  23  53 CALM      30.39F
MIDDLESBORO*   PTCLDY    25  22  90 CALM      30.42F
HARLAN APT*    SUNNY     30  19  64 CALM      30.40S
BIG SANDY*     MOSUNNY   31  15  52 S3        30.36F
MOREHEAD APT*  CLOUDY    36  14  41 CALM      30.36F
$$

KYZ035-036-041-042-044-050-067-078-099-221100
...CENTRAL KENTUCKY...

CITY           SKY/WX    TMP DP  RH WIND       PRES   REMARKS
MT STERLING*   CLOUDY    36  18  48 SW7       30.35S WCI  30
FLEMING/MASON* CLOUDY    33  19  56 S6        30.34F WCI  28
DANVILLE*      CLOUDY    37  21  52 S6        30.35F WCI  33
RICHMOND*      MOCLDY    41  16  36 S8        30.33F
LEXINGTON      CLOUDY    38  20  48 S8        30.33F WCI  32
FRANKFORT      CLOUDY    37  21  52 S5        30.31F WCI  33
$$

KYZ091>093-OHZ055-061-077-WVZ005-015-034-035-042-221100
...SOUTHERN OHIO/WEST VIRGINIA...

CITY           SKY/WX    TMP DP  RH WIND       PRES   REMARKS
COVINGTON      LGT RAIN  33  24  69 S6        30.30F WCI  28
COLUMBUS       CLOUDY    28  11  48 SE6       30.32F WCI  22
DAYTON         FRZ DRZL  32  19  58 S13       30.27F WCI  22
WILMINGTON     CLOUDY    33  19  56 S10       30.30F WCI  25
HUNTINGTON     CLEAR     20  16  84 CALM      30.36F
CHARLESTON     CLEAR     18  15  88 SE3       30.38F
PINEVILLE*     PTCLDY    22  21  96 MISG      30.45S
BECKLEY        PTCLDY    28   6  39 CALM      30.37F
BLUEFIELD      PTCLDY    26   5  40 CALM      30.38F
$$

VAZ002-007-008-TNZ017-027-036-066-071-221100
...SOUTHWEST VIRGINIA/EAST TENNESSEE...

CITY           SKY/WX    TMP DP  RH WIND       PRES   REMARKS
WISE*          CLEAR     34   9  35 SW5       30.38S WCI  30
JONESVILLE*    SUNNY     21  18  86 CALM      30.45S
ABINGDON*      CLEAR     29  12  47 E6        30.41S WCI  23
BRISTOL        CLEAR     21  16  81 CALM      30.43S
KNOXVILLE      PTCLDY    27  22  81 CALM      30.43R
OAK RIDGE      CLEAR     27  23  85 CALM      30.45S
CROSSVILLE     CLEAR     34  16  47 CALM      30.39S
NASHVILLE      CLOUDY    48  32  53 S6        30.35F
$$

...KEY TO REMARKS...
VSB - VISIBILITY IN MILES
WCI - WIND CHILL INDEX
HX  - HEAT INDEX

$$


USA.gov is the U.S. government's official web portal to all federal, state and local government web resources and services.